Time,TemperatureF,DewpointF,PressureIn,WindDirection,WindDirectionDegrees,WindSpeedMPH,WindSpeedGustMPH,Humidity,HourlyPrecipIn,Conditions,Clouds,dailyrainin,SoftwareType,DateUTC
2013-03-08 00:00:00,39.0,30.7,29.73,NNE,22,0.0,0.0,72,0.00,,,0.00,WUHU21623XXSP,2013-03-08 05:00:00,
2013-03-08 00:01:00,39.0,30.7,29.73,NNE,22,0.0,0.0,72,0.00,,,0.00,WUHU21623XXSP,2013-03-08 05:01:00,
2013-03-08 00:06:00,39.0,30.7,29.72,NNE,22,0.0,0.0,72,0.00,,,0.00,WUHU21623XXSP,2013-03-08 05:06:00,
2013-03-08 00:11:00,39.0,31.0,29.73,NNE,22,0.0,0.0,73,0.00,,,0.00,WUHU21623XXSP,2013-03-08 05:11:00,
2013-03-08 00:16:00,39.0,31.0,29.73,NNE,22,0.0,0.0,73,0.00,,,0.00,WUHU21623XXSP,2013-03-08 05:16:00,
2013-03-08 00:21:00,38.8,31.2,29.73,NNE,22,0.0,0.0,74,0.00,,,0.00,WUHU21623XXSP,2013-03-08 05:21:00,
2013-03-08 00:26:00,38.8,30.9,29.73,NNE,22,0.0,0.0,73,0.00,,,0.00,WUHU21623XXSP,2013-03-08 05:26:00,
2013-03-08 00:31:00,38.8,31.2,29.73,NNE,22,0.0,0.0,74,0.00,,,0.00,WUHU21623XXSP,2013-03-08 05:31:00,
2013-03-08 00:36:00,38.8,31.9,29.74,NE,45,0.0,2.5,76,0.00,,,0.00,WUHU21623XXSP,2013-03-08 05:36:00,
2013-03-08 00:41:00,39.0,32.1,29.74,NE,45,0.0,2.5,76,0.00,,,0.00,WUHU21623XXSP,2013-03-08 05:41:00,
2013-03-08 00:46:00,39.0,32.1,29.74,NE,45,0.0,0.0,76,0.00,,,0.00,WUHU21623XXSP,2013-03-08 05:46:00,
2013-03-08 00:51:00,39.0,32.1,29.74,NE,45,0.0,0.0,76,0.00,,,0.00,WUHU21623XXSP,2013-03-08 05:51:00,
2013-03-08 00:56:00,39.0,32.1,29.74,NE,45,0.0,0.0,76,0.00,,,0.00,WUHU21623XXSP,2013-03-08 05:56:00,
2013-03-08 01:01:00,39.0,32.1,29.74,NE,45,0.0,0.0,76,0.00,,,0.00,WUHU21623XXSP,2013-03-08 06:01:00,
2013-03-08 01:06:00,39.0,31.7,29.74,NNE,22,0.0,0.0,75,0.00,,,0.00,WUHU21623XXSP,2013-03-08 06:06:00,
2013-03-08 01:11:00,39.0,31.7,29.75,NNE,22,0.0,0.0,75,0.00,,,0.00,WUHU21623XXSP,2013-03-08 06:11:00,
2013-03-08 01:16:00,39.0,31.4,29.75,NNE,22,0.0,0.0,74,0.00,,,0.00,WUHU21623XXSP,2013-03-08 06:16:00,
2013-03-08 01:21:00,38.8,31.2,29.75,NNE,22,0.0,0.0,74,0.00,,,0.00,WUHU21623XXSP,2013-03-08 06:21:00,
2013-03-08 01:26:00,38.7,31.0,29.75,NNE,22,0.0,0.0,74,0.00,,,0.00,WUHU21623XXSP,2013-03-08 06:26:00,
2013-03-08 01:31:00,38.5,30.9,29.76,East,90,0.0,0.0,74,0.00,,,0.00,WUHU21623XXSP,2013-03-08 06:31:00,
2013-03-08 01:36:00,38.5,30.9,29.76,East,90,0.0,0.0,74,0.00,,,0.00,WUHU21623XXSP,2013-03-08 06:36:00,
2013-03-08 01:41:00,38.1,30.5,29.76,East,90,0.0,0.0,74,0.00,,,0.00,WUHU21623XXSP,2013-03-08 06:41:00,
2013-03-08 01:46:00,37.9,30.4,29.76,East,90,0.0,0.0,74,0.00,,,0.00,WUHU21623XXSP,2013-03-08 06:46:00,
2013-03-08 01:51:00,37.9,30.7,29.76,East,90,0.0,0.0,75,0.00,,,0.00,WUHU21623XXSP,2013-03-08 06:51:00,
2013-03-08 01:56:00,37.8,30.5,29.76,East,90,0.0,0.0,75,0.00,,,0.00,WUHU21623XXSP,2013-03-08 06:56:00,
2013-03-08 02:02:00,37.4,30.2,29.76,East,90,0.0,0.0,75,0.00,,,0.00,WUHU21623XXSP,2013-03-08 07:02:00,
2013-03-08 02:07:00,37.2,30.0,29.76,East,90,0.0,0.0,75,0.00,,,0.00,WUHU21623XXSP,2013-03-08 07:07:00,
2013-03-08 02:12:00,37.0,29.8,29.76,ESE,112,0.0,0.0,75,0.00,,,0.00,WUHU21623XXSP,2013-03-08 07:12:00,
2013-03-08 02:17:00,36.9,29.7,29.76,ESE,112,0.0,0.0,75,0.00,,,0.00,WUHU21623XXSP,2013-03-08 07:17:00,
2013-03-08 02:22:00,36.9,29.3,29.76,ESE,112,0.0,0.0,74,0.00,,,0.00,WUHU21623XXSP,2013-03-08 07:22:00,
2013-03-08 02:27:00,37.0,29.8,29.76,East,90,0.0,0.0,75,0.00,,,0.00,WUHU21623XXSP,2013-03-08 07:27:00,
2013-03-08 02:32:00,37.2,29.7,29.76,East,90,0.0,0.0,74,0.00,,,0.00,WUHU21623XXSP,2013-03-08 07:32:00,
2013-03-08 02:37:00,37.2,29.7,29.76,ENE,67,0.0,3.8,74,0.00,,,0.00,WUHU21623XXSP,2013-03-08 07:37:00,
2013-03-08 02:42:00,37.2,29.7,29.76,ENE,67,0.0,3.8,74,0.00,,,0.00,WUHU21623XXSP,2013-03-08 07:42:00,
2013-03-08 02:47:00,37.2,29.4,29.76,ESE,112,0.0,4.0,73,0.00,,,0.00,WUHU21623XXSP,2013-03-08 07:47:00,
2013-03-08 02:52:00,37.2,29.4,29.76,ESE,112,0.0,4.0,73,0.00,,,0.00,WUHU21623XXSP,2013-03-08 07:52:00,
2013-03-08 02:57:00,36.9,29.0,29.77,ESE,112,0.0,0.0,73,0.00,,,0.00,WUHU21623XXSP,2013-03-08 07:57:00,
2013-03-08 03:02:00,36.9,29.0,29.77,ESE,112,0.0,4.7,73,0.00,,,0.00,WUHU21623XXSP,2013-03-08 08:02:00,
2013-03-08 03:07:00,36.7,28.8,29.77,ESE,112,0.0,4.7,73,0.00,,,0.00,WUHU21623XXSP,2013-03-08 08:07:00,
2013-03-08 03:12:00,36.3,28.5,29.77,ESE,112,0.0,0.0,73,0.00,,,0.00,WUHU21623XXSP,2013-03-08 08:12:00,
2013-03-08 03:17:00,36.1,28.6,29.77,East,90,0.0,0.0,74,0.00,,,0.00,WUHU21623XXSP,2013-03-08 08:17:00,
2013-03-08 03:22:00,36.0,28.4,29.77,East,90,0.0,0.0,74,0.00,,,0.00,WUHU21623XXSP,2013-03-08 08:22:00,
2013-03-08 03:27:00,35.8,28.3,29.78,East,90,0.0,0.0,74,0.00,,,0.00,WUHU21623XXSP,2013-03-08 08:27:00,
2013-03-08 03:32:00,35.8,28.3,29.77,East,90,0.0,0.0,74,0.00,,,0.00,WUHU21623XXSP,2013-03-08 08:32:00,
2013-03-08 03:37:00,36.0,28.4,29.78,ENE,67,0.0,6.9,74,0.00,,,0.00,WUHU21623XXSP,2013-03-08 08:37:00,
2013-03-08 03:42:00,35.8,28.3,29.78,ENE,67,0.0,6.9,74,0.00,,,0.00,WUHU21623XXSP,2013-03-08 08:42:00,
2013-03-08 03:47:00,35.6,28.1,29.78,ENE,67,0.0,0.0,74,0.00,,,0.00,WUHU21623XXSP,2013-03-08 08:47:00,
2013-03-08 03:52:00,35.4,27.9,29.78,ESE,112,0.0,0.0,74,0.00,,,0.00,WUHU21623XXSP,2013-03-08 08:52:00,
2013-03-08 03:57:00,35.4,27.9,29.78,ESE,112,0.0,0.0,74,0.00,,,0.00,WUHU21623XXSP,2013-03-08 08:57:00,
2013-03-08 04:02:00,35.4,27.9,29.78,ESE,112,0.0,0.0,74,0.00,,,0.00,WUHU21623XXSP,2013-03-08 09:02:00,
2013-03-08 04:07:00,35.2,27.7,29.78,ESE,112,0.0,0.0,74,0.00,,,0.00,WUHU21623XXSP,2013-03-08 09:07:00,
2013-03-08 04:12:00,34.9,27.0,29.78,ESE,112,0.0,0.0,73,0.00,,,0.00,WUHU21623XXSP,2013-03-08 09:12:00,
2013-03-08 04:17:00,34.9,27.0,29.78,ESE,112,0.0,0.0,73,0.00,,,0.00,WUHU21623XXSP,2013-03-08 09:17:00,
2013-03-08 04:22:00,34.5,26.7,29.78,ESE,112,0.0,0.0,73,0.00,,,0.00,WUHU21623XXSP,2013-03-08 09:22:00,
2013-03-08 04:27:00,34.5,26.7,29.78,ESE,112,0.0,0.0,73,0.00,,,0.00,WUHU21623XXSP,2013-03-08 09:27:00,
2013-03-08 04:32:00,34.3,26.5,29.78,ESE,112,0.0,0.0,73,0.00,,,0.00,WUHU21623XXSP,2013-03-08 09:32:00,
2013-03-08 04:37:00,34.3,26.5,29.79,ESE,112,0.0,0.0,73,0.00,,,0.00,WUHU21623XXSP,2013-03-08 09:37:00,
2013-03-08 04:42:00,34.3,26.5,29.79,ESE,112,0.0,0.0,73,0.00,,,0.00,WUHU21623XXSP,2013-03-08 09:42:00,
2013-03-08 04:47:00,34.0,26.1,29.79,ESE,112,0.0,0.0,73,0.00,,,0.00,WUHU21623XXSP,2013-03-08 09:47:00,
2013-03-08 04:52:00,34.0,26.1,29.79,ESE,112,0.0,0.0,73,0.00,,,0.00,WUHU21623XXSP,2013-03-08 09:52:00,
2013-03-08 04:57:00,33.8,26.0,29.78,ESE,112,0.0,0.0,73,0.00,,,0.00,WUHU21623XXSP,2013-03-08 09:57:00,
2013-03-08 05:02:00,33.8,26.0,29.79,ESE,112,0.0,0.0,73,0.00,,,0.00,WUHU21623XXSP,2013-03-08 10:02:00,
2013-03-08 05:07:00,33.6,25.8,29.79,ESE,112,0.0,0.0,73,0.00,,,0.00,WUHU21623XXSP,2013-03-08 10:07:00,
2013-03-08 05:12:00,33.6,25.8,29.79,ESE,112,0.0,0.0,73,0.00,,,0.00,WUHU21623XXSP,2013-03-08 10:12:00,
2013-03-08 05:17:00,33.3,25.8,29.79,ESE,112,0.0,0.0,74,0.00,,,0.00,WUHU21623XXSP,2013-03-08 10:17:00,
2013-03-08 05:22:00,33.1,25.6,29.80,ESE,112,0.0,0.0,74,0.00,,,0.00,WUHU21623XXSP,2013-03-08 10:22:00,
2013-03-08 05:27:00,32.7,25.3,29.80,ESE,112,0.0,0.0,74,0.00,,,0.00,WUHU21623XXSP,2013-03-08 10:27:00,
2013-03-08 05:32:00,32.5,25.1,29.80,ESE,112,0.0,0.0,74,0.00,,,0.00,WUHU21623XXSP,2013-03-08 10:32:00,
2013-03-08 05:37:00,32.5,25.1,29.80,ESE,112,0.0,0.0,74,0.00,,,0.00,WUHU21623XXSP,2013-03-08 10:37:00,
2013-03-08 05:42:00,32.2,24.8,29.80,ESE,112,0.0,0.0,74,0.00,,,0.00,WUHU21623XXSP,2013-03-08 10:42:00,
2013-03-08 05:47:00,32.2,24.8,29.80,ESE,112,0.0,0.0,74,0.00,,,0.00,WUHU21623XXSP,2013-03-08 10:47:00,
2013-03-08 05:52:00,31.8,24.8,29.80,ESE,112,0.0,0.0,75,0.00,,,0.00,WUHU21623XXSP,2013-03-08 10:52:00,
2013-03-08 05:57:00,31.8,24.8,29.80,ESE,112,0.0,0.0,75,0.00,,,0.00,WUHU21623XXSP,2013-03-08 10:57:00,
2013-03-08 06:02:00,31.8,24.8,29.80,ESE,112,0.0,4.7,75,0.00,,,0.00,WUHU21623XXSP,2013-03-08 11:02:00,
2013-03-08 06:07:00,31.8,24.8,29.80,ESE,112,0.0,4.7,75,0.00,,,0.00,WUHU21623XXSP,2013-03-08 11:07:00,
2013-03-08 06:12:00,31.8,24.8,29.80,ESE,112,0.0,0.0,75,0.00,,,0.00,WUHU21623XXSP,2013-03-08 11:12:00,
2013-03-08 06:17:00,31.6,24.6,29.80,ESE,112,0.0,0.0,75,0.00,,,0.00,WUHU21623XXSP,2013-03-08 11:17:00,
2013-03-08 06:22:00,31.6,24.6,29.80,ESE,112,0.0,0.0,75,0.00,,,0.00,WUHU21623XXSP,2013-03-08 11:22:00,
2013-03-08 06:27:00,31.6,24.9,29.81,ESE,112,0.0,0.0,76,0.00,,,0.00,WUHU21623XXSP,2013-03-08 11:27:00,
2013-03-08 06:32:00,31.6,24.9,29.81,ESE,112,0.0,0.0,76,0.00,,,0.00,WUHU21623XXSP,2013-03-08 11:32:00,
2013-03-08 06:37:00,31.6,24.9,29.81,ESE,112,0.0,0.0,76,0.00,,,0.00,WUHU21623XXSP,2013-03-08 11:37:00,
2013-03-08 06:42:00,31.6,24.9,29.81,ESE,112,0.0,0.0,76,0.00,,,0.00,WUHU21623XXSP,2013-03-08 11:42:00,
2013-03-08 06:47:00,31.6,24.9,29.81,ESE,112,0.0,0.0,76,0.00,,,0.00,WUHU21623XXSP,2013-03-08 11:47:00,
2013-03-08 06:52:00,31.6,24.9,29.81,ESE,112,0.0,0.0,76,0.00,,,0.00,WUHU21623XXSP,2013-03-08 11:52:00,
2013-03-08 06:58:00,31.3,24.6,29.81,ESE,112,0.0,0.0,76,0.00,,,0.00,WUHU21623XXSP,2013-03-08 11:58:00,
2013-03-08 07:03:00,31.3,24.6,29.82,ESE,112,0.0,0.0,76,0.00,,,0.00,WUHU21623XXSP,2013-03-08 12:03:00,
2013-03-08 07:08:00,31.3,24.6,29.82,ESE,112,0.0,0.0,76,0.00,,,0.00,WUHU21623XXSP,2013-03-08 12:08:00,
2013-03-08 07:13:00,31.6,24.9,29.82,ESE,112,0.0,0.0,76,0.00,,,0.00,WUHU21623XXSP,2013-03-08 12:13:00,
2013-03-08 07:18:00,31.8,25.1,29.82,ESE,112,0.0,0.0,76,0.00,,,0.00,WUHU21623XXSP,2013-03-08 12:18:00,
2013-03-08 07:23:00,32.7,26.3,29.82,ESE,112,0.0,0.0,77,0.00,,,0.00,WUHU21623XXSP,2013-03-08 12:23:00,
2013-03-08 07:28:00,33.6,27.1,29.82,ESE,112,0.0,0.0,77,0.00,,,0.00,WUHU21623XXSP,2013-03-08 12:28:00,
2013-03-08 07:33:00,35.2,28.4,29.83,ESE,112,0.0,0.0,76,0.00,,,0.00,WUHU21623XXSP,2013-03-08 12:33:00,
2013-03-08 07:38:00,37.2,30.0,29.83,ESE,112,0.0,0.0,75,0.00,,,0.00,WUHU21623XXSP,2013-03-08 12:38:00,
2013-03-08 07:43:00,38.8,30.5,29.83,ESE,112,0.0,0.0,72,0.00,,,0.00,WUHU21623XXSP,2013-03-08 12:43:00,
2013-03-08 07:48:00,40.3,31.3,29.84,ESE,112,0.0,0.0,70,0.00,,,0.00,WUHU21623XXSP,2013-03-08 12:48:00,
2013-03-08 07:53:00,41.5,31.8,29.84,East,90,0.0,0.0,68,0.00,,,0.00,WUHU21623XXSP,2013-03-08 12:53:00,
2013-03-08 07:58:00,42.6,31.6,29.84,ENE,67,0.0,0.0,65,0.00,,,0.00,WUHU21623XXSP,2013-03-08 12:58:00,
2013-03-08 08:03:00,43.3,31.6,29.84,ENE,67,0.0,0.0,63,0.00,,,0.00,WUHU21623XXSP,2013-03-08 13:03:00,
2013-03-08 08:08:00,43.9,31.3,29.84,ENE,67,0.0,7.4,61,0.00,,,0.00,WUHU21623XXSP,2013-03-08 13:08:00,
2013-03-08 08:13:00,44.4,31.5,29.84,NE,45,0.0,7.4,60,0.00,,,0.00,WUHU21623XXSP,2013-03-08 13:13:00,
2013-03-08 08:18:00,44.6,31.2,29.84,East,90,0.0,4.3,59,0.00,,,0.00,WUHU21623XXSP,2013-03-08 13:18:00,
2013-03-08 08:23:00,45.1,31.2,29.84,NNE,22,2.5,4.3,58,0.00,,,0.00,WUHU21623XXSP,2013-03-08 13:23:00,
2013-03-08 08:28:00,45.1,30.8,29.84,NE,45,0.0,2.7,57,0.00,,,0.00,WUHU21623XXSP,2013-03-08 13:28:00,
2013-03-08 08:33:00,45.7,31.3,29.84,SE,135,0.0,2.5,57,0.00,,,0.00,WUHU21623XXSP,2013-03-08 13:33:00,
2013-03-08 08:38:00,46.2,31.3,29.84,ENE,67,0.0,0.0,56,0.00,,,0.00,WUHU21623XXSP,2013-03-08 13:38:00,
2013-03-08 08:43:00,46.6,31.6,29.84,East,90,0.0,3.4,56,0.00,,,0.00,WUHU21623XXSP,2013-03-08 13:43:00,
2013-03-08 08:48:00,47.1,31.7,29.85,NE,45,0.0,5.4,55,0.00,,,0.00,WUHU21623XXSP,2013-03-08 13:48:00,
2013-03-08 08:53:00,47.8,31.9,29.84,ENE,67,0.0,5.4,54,0.00,,,0.00,WUHU21623XXSP,2013-03-08 13:53:00,
2013-03-08 08:58:00,48.2,31.8,29.84,SSE,157,3.8,3.8,53,0.00,,,0.00,WUHU21623XXSP,2013-03-08 13:58:00,
2013-03-08 09:03:00,48.4,31.5,29.84,East,90,0.0,4.5,52,0.00,,,0.00,WUHU21623XXSP,2013-03-08 14:03:00,
2013-03-08 09:08:00,48.4,31.0,29.84,East,90,0.0,5.8,51,0.00,,,0.00,WUHU21623XXSP,2013-03-08 14:08:00,
2013-03-08 09:13:00,48.7,31.4,29.85,SSE,157,0.0,5.8,51,0.00,,,0.00,WUHU21623XXSP,2013-03-08 14:13:00,
2013-03-08 09:18:00,49.1,31.3,29.84,SE,135,6.7,7.6,50,0.00,,,0.00,WUHU21623XXSP,2013-03-08 14:18:00,
2013-03-08 09:23:00,49.1,31.3,29.84,East,90,0.0,7.6,50,0.00,,,0.00,WUHU21623XXSP,2013-03-08 14:23:00,
2013-03-08 09:28:00,49.8,31.4,29.85,ESE,112,0.0,6.3,49,0.00,,,0.00,WUHU21623XXSP,2013-03-08 14:28:00,
2013-03-08 09:33:00,50.5,32.1,29.85,ENE,67,0.0,0.0,49,0.00,,,0.00,WUHU21623XXSP,2013-03-08 14:33:00,
2013-03-08 09:38:00,51.3,32.2,29.84,SE,135,0.0,5.4,48,0.00,,,0.00,WUHU21623XXSP,2013-03-08 14:38:00,
2013-03-08 09:43:00,52.3,33.2,29.84,SE,135,0.0,5.4,48,0.00,,,0.00,WUHU21623XXSP,2013-03-08 14:43:00,
2013-03-08 09:48:00,53.2,32.9,29.85,ESE,112,0.0,5.4,46,0.00,,,0.00,WUHU21623XXSP,2013-03-08 14:48:00,
2013-03-08 09:53:00,53.8,32.8,29.85,ENE,67,2.9,5.4,45,0.00,,,0.00,WUHU21623XXSP,2013-03-08 14:53:00,
2013-03-08 09:58:00,53.8,32.2,29.84,SE,135,0.0,4.5,44,0.00,,,0.00,WUHU21623XXSP,2013-03-08 14:58:00,
2013-03-08 10:03:00,54.3,32.7,29.84,SSE,157,0.0,4.0,44,0.00,,,0.00,WUHU21623XXSP,2013-03-08 15:03:00,
2013-03-08 10:08:00,54.5,32.3,29.84,ESE,112,0.0,5.8,43,0.00,,,0.00,WUHU21623XXSP,2013-03-08 15:08:00,
2013-03-08 10:13:00,54.7,32.5,29.84,SSE,157,0.0,5.8,43,0.00,,,0.00,WUHU21623XXSP,2013-03-08 15:13:00,
2013-03-08 10:18:00,55.6,32.7,29.84,ENE,67,0.0,4.0,42,0.00,,,0.00,WUHU21623XXSP,2013-03-08 15:18:00,
2013-03-08 10:23:00,56.8,33.3,29.85,NE,45,0.0,0.0,41,0.00,,,0.00,WUHU21623XXSP,2013-03-08 15:23:00,
2013-03-08 10:28:00,57.6,33.4,29.85,ESE,112,2.9,5.1,40,0.00,,,0.00,WUHU21623XXSP,2013-03-08 15:28:00,
2013-03-08 10:33:00,57.0,32.9,29.84,SE,135,2.7,5.1,40,0.00,,,0.00,WUHU21623XXSP,2013-03-08 15:33:00,
2013-03-08 10:38:00,56.5,32.4,29.84,SE,135,0.0,6.3,40,0.00,,,0.00,WUHU21623XXSP,2013-03-08 15:38:00,
2013-03-08 10:43:00,57.0,32.9,29.84,ESE,112,0.0,6.3,40,0.00,,,0.00,WUHU21623XXSP,2013-03-08 15:43:00,
2013-03-08 10:48:00,57.9,33.0,29.84,ENE,67,0.0,6.0,39,0.00,,,0.00,WUHU21623XXSP,2013-03-08 15:48:00,
2013-03-08 10:53:00,59.2,33.4,29.84,SE,135,2.0,6.0,38,0.00,,,0.00,WUHU21623XXSP,2013-03-08 15:53:00,
2013-03-08 10:58:00,60.4,33.8,29.84,NE,45,0.0,2.0,37,0.00,,,0.00,WUHU21623XXSP,2013-03-08 15:58:00,
2013-03-08 11:03:00,61.3,33.9,29.84,NNE,22,0.0,2.0,36,0.00,,,0.00,WUHU21623XXSP,2013-03-08 16:03:00,
2013-03-08 11:08:00,62.1,33.9,29.84,NE,45,0.0,1.1,35,0.00,,,0.00,WUHU21623XXSP,2013-03-08 16:08:00,
2013-03-08 11:13:00,62.2,33.3,29.83,NNE,22,0.0,3.4,34,0.00,,,0.00,WUHU21623XXSP,2013-03-08 16:13:00,
2013-03-08 11:18:00,62.8,33.8,29.83,NNE,22,0.0,3.4,34,0.00,,,0.00,WUHU21623XXSP,2013-03-08 16:18:00,
2013-03-08 11:23:00,63.7,33.9,29.83,East,90,0.0,3.6,33,0.00,,,0.00,WUHU21623XXSP,2013-03-08 16:23:00,
2013-03-08 11:28:00,64.2,33.6,29.83,ESE,112,0.0,7.4,32,0.00,,,0.00,WUHU21623XXSP,2013-03-08 16:28:00,
2013-03-08 11:34:00,64.4,34.5,29.84,ESE,112,0.0,7.4,33,0.00,,,0.00,WUHU21623XXSP,2013-03-08 16:34:00,
2013-03-08 11:39:00,66.0,35.3,29.83,NE,45,0.0,5.6,32,0.00,,,0.00,WUHU21623XXSP,2013-03-08 16:39:00,
2013-03-08 11:44:00,66.9,35.3,29.83,East,90,0.0,5.8,31,0.00,,,0.00,WUHU21623XXSP,2013-03-08 16:44:00,
2013-03-08 11:49:00,67.1,35.4,29.84,SE,135,1.6,5.8,31,0.00,,,0.00,WUHU21623XXSP,2013-03-08 16:49:00,
2013-03-08 11:54:00,67.8,35.3,29.84,NNE,22,0.0,7.2,30,0.00,,,0.00,WUHU21623XXSP,2013-03-08 16:54:00,
2013-03-08 11:59:00,68.5,35.9,29.83,NE,45,0.0,7.2,30,0.00,,,0.00,WUHU21623XXSP,2013-03-08 16:59:00,
2013-03-08 12:04:00,68.7,35.1,29.83,WSW,247,0.0,0.0,29,0.00,,,0.00,WUHU21623XXSP,2013-03-08 17:04:00,
2013-03-08 12:09:00,70.0,36.2,29.83,WNW,292,0.0,0.0,29,0.00,,,0.00,WUHU21623XXSP,2013-03-08 17:09:00,
2013-03-08 12:14:00,70.3,36.5,29.83,ENE,67,2.0,2.0,29,0.00,,,0.00,WUHU21623XXSP,2013-03-08 17:14:00,
2013-03-08 12:19:00,70.9,37.0,29.83,ENE,67,0.0,2.7,29,0.00,,,0.00,WUHU21623XXSP,2013-03-08 17:19:00,
2013-03-08 12:24:00,71.6,36.6,29.83,NE,45,0.0,3.6,28,0.00,,,0.00,WUHU21623XXSP,2013-03-08 17:24:00,
2013-03-08 12:29:00,71.8,36.8,29.82,NE,45,0.0,3.6,28,0.00,,,0.00,WUHU21623XXSP,2013-03-08 17:29:00,
2013-03-08 12:34:00,72.3,36.2,29.83,North,0,0.0,4.5,27,0.00,,,0.00,WUHU21623XXSP,2013-03-08 17:34:00,
2013-03-08 12:39:00,73.2,36.9,29.83,North,0,0.0,4.5,27,0.00,,,0.00,WUHU21623XXSP,2013-03-08 17:39:00,
2013-03-08 12:44:00,74.1,36.7,29.82,NNW,337,0.0,1.3,26,0.00,,,0.00,WUHU21623XXSP,2013-03-08 17:44:00,
2013-03-08 12:49:00,75.0,38.5,29.82,NNW,337,0.0,1.3,27,0.00,,,0.00,WUHU21623XXSP,2013-03-08 17:49:00,
2013-03-08 12:54:00,75.7,37.0,29.82,NNW,337,3.8,3.8,25,0.00,,,0.00,WUHU21623XXSP,2013-03-08 17:54:00,
2013-03-08 12:59:00,75.4,36.7,29.82,North,0,0.0,3.8,25,0.00,,,0.00,WUHU21623XXSP,2013-03-08 17:59:00,
2013-03-08 13:04:00,76.5,37.7,29.81,NNE,22,0.0,2.5,25,0.00,,,0.00,WUHU21623XXSP,2013-03-08 18:04:00,
2013-03-08 13:09:00,76.5,36.6,29.81,ENE,67,0.0,2.9,24,0.00,,,0.00,WUHU21623XXSP,2013-03-08 18:09:00,
2013-03-08 13:14:00,77.2,37.2,29.81,NNE,22,0.0,2.9,24,0.00,,,0.00,WUHU21623XXSP,2013-03-08 18:14:00,
2013-03-08 13:19:00,78.1,37.9,29.81,NNE,22,0.0,0.0,24,0.00,,,0.00,WUHU21623XXSP,2013-03-08 18:19:00,
2013-03-08 13:24:00,76.6,36.8,29.80,North,0,1.6,2.9,24,0.00,,,0.00,WUHU21623XXSP,2013-03-08 18:24:00,
2013-03-08 13:29:00,73.9,35.5,29.80,WSW,247,0.0,2.9,25,0.00,,,0.00,WUHU21623XXSP,2013-03-08 18:29:00,
2013-03-08 13:34:00,72.1,35.0,29.80,WSW,247,0.0,1.6,26,0.00,,,0.00,WUHU21623XXSP,2013-03-08 18:34:00,
2013-03-08 13:39:00,71.2,36.3,29.79,WSW,247,0.0,0.0,28,0.00,,,0.00,WUHU21623XXSP,2013-03-08 18:39:00,
2013-03-08 13:44:00,70.9,33.9,29.79,WSW,247,0.0,2.2,26,0.00,,,0.00,WUHU21623XXSP,2013-03-08 18:44:00,
2013-03-08 13:49:00,69.6,32.8,29.79,WSW,247,2.5,2.5,26,0.00,,,0.00,WUHU21623XXSP,2013-03-08 18:49:00,
2013-03-08 13:54:00,69.4,33.7,29.78,NNE,22,0.0,2.5,27,0.00,,,0.00,WUHU21623XXSP,2013-03-08 18:54:00,
2013-03-08 13:59:00,70.9,35.0,29.78,WSW,247,4.3,4.3,27,0.00,,,0.00,WUHU21623XXSP,2013-03-08 18:59:00,
2013-03-08 14:04:00,68.5,32.9,29.78,North,0,6.3,6.3,27,0.00,,,0.00,WUHU21623XXSP,2013-03-08 19:04:00,
2013-03-08 14:09:00,70.5,34.6,29.78,SSE,157,0.0,6.3,27,0.00,,,0.00,WUHU21623XXSP,2013-03-08 19:09:00,
2013-03-08 14:14:00,74.8,36.3,29.78,WSW,247,0.0,3.6,25,0.00,,,0.00,WUHU21623XXSP,2013-03-08 19:14:00,
2013-03-08 14:19:00,77.4,37.4,29.78,NNE,22,0.0,0.0,24,0.00,,,0.00,WUHU21623XXSP,2013-03-08 19:19:00,
2013-03-08 14:24:00,77.2,36.2,29.77,NNE,22,0.0,4.0,23,0.00,,,0.00,WUHU21623XXSP,2013-03-08 19:24:00,
2013-03-08 14:29:00,78.6,37.3,29.76,NNE,22,0.0,4.0,23,0.00,,,0.00,WUHU21623XXSP,2013-03-08 19:29:00,
2013-03-08 14:34:00,78.4,36.1,29.77,WSW,247,0.0,4.5,22,0.00,,,0.00,WUHU21623XXSP,2013-03-08 19:34:00,
2013-03-08 14:39:00,78.1,36.9,29.76,WSW,247,0.0,4.5,23,0.00,,,0.00,WUHU21623XXSP,2013-03-08 19:39:00,
2013-03-08 14:44:00,79.3,36.9,29.76,ENE,67,0.0,0.0,22,0.00,,,0.00,WUHU21623XXSP,2013-03-08 19:44:00,
2013-03-08 14:49:00,78.6,36.3,29.75,WSW,247,0.0,3.6,22,0.00,,,0.00,WUHU21623XXSP,2013-03-08 19:49:00,
2013-03-08 14:54:00,77.7,35.6,29.75,WSW,247,0.0,4.5,22,0.00,,,0.00,WUHU21623XXSP,2013-03-08 19:54:00,
2013-03-08 14:59:00,77.7,35.6,29.75,WSW,247,0.0,4.5,22,0.00,,,0.00,WUHU21623XXSP,2013-03-08 19:59:00,
2013-03-08 15:04:00,77.7,36.6,29.75,WSW,247,0.0,4.0,23,0.00,,,0.00,WUHU21623XXSP,2013-03-08 20:04:00,
2013-03-08 15:09:00,78.6,36.3,29.74,WSW,247,0.0,0.0,22,0.00,,,0.00,WUHU21623XXSP,2013-03-08 20:09:00,
2013-03-08 15:14:00,79.2,36.8,29.75,WSW,247,0.0,0.0,22,0.00,,,0.00,WUHU21623XXSP,2013-03-08 20:14:00,
2013-03-08 15:19:00,79.0,36.6,29.75,WSW,247,0.0,0.0,22,0.00,,,0.00,WUHU21623XXSP,2013-03-08 20:19:00,
2013-03-08 15:24:00,78.4,36.1,29.74,WSW,247,0.0,3.1,22,0.00,,,0.00,WUHU21623XXSP,2013-03-08 20:24:00,
2013-03-08 15:29:00,77.5,35.4,29.74,WSW,247,0.0,3.1,22,0.00,,,0.00,WUHU21623XXSP,2013-03-08 20:29:00,
2013-03-08 15:35:00,77.4,35.3,29.74,North,0,0.0,2.7,22,0.00,,,0.00,WUHU21623XXSP,2013-03-08 20:35:00,
2013-03-08 15:40:00,73.0,32.7,29.74,North,0,0.0,1.8,23,0.00,,,0.00,WUHU21623XXSP,2013-03-08 20:40:00,
2013-03-08 15:45:00,68.4,30.8,29.74,North,0,0.0,5.6,25,0.00,,,0.00,WUHU21623XXSP,2013-03-08 20:45:00,
2013-03-08 15:50:00,64.6,29.5,29.74,ENE,67,0.0,5.6,27,0.00,,,0.00,WUHU21623XXSP,2013-03-08 20:50:00,
2013-03-08 15:55:00,63.1,28.3,29.73,North,0,5.6,5.6,27,0.00,,,0.00,WUHU21623XXSP,2013-03-08 20:55:00,
2013-03-08 16:00:00,61.5,27.8,29.73,NNE,22,0.0,5.8,28,0.00,,,0.00,WUHU21623XXSP,2013-03-08 21:00:00,
2013-03-08 16:05:00,60.6,28.0,29.73,NE,45,0.0,5.8,29,0.00,,,0.00,WUHU21623XXSP,2013-03-08 21:05:00,
2013-03-08 16:10:00,60.1,27.6,29.73,NNW,337,0.0,4.0,29,0.00,,,0.00,WUHU21623XXSP,2013-03-08 21:10:00,
2013-03-08 16:15:00,60.6,28.0,29.73,NNE,22,0.0,6.0,29,0.00,,,0.00,WUHU21623XXSP,2013-03-08 21:15:00,
2013-03-08 16:20:00,60.4,27.9,29.73,NE,45,0.0,6.0,29,0.00,,,0.00,WUHU21623XXSP,2013-03-08 21:20:00,
2013-03-08 16:25:00,60.1,28.5,29.73,NE,45,0.0,0.0,30,0.00,,,0.00,WUHU21623XXSP,2013-03-08 21:25:00,
2013-03-08 16:30:00,60.1,28.5,29.73,NE,45,0.0,0.0,30,0.00,,,0.00,WUHU21623XXSP,2013-03-08 21:30:00,
2013-03-08 16:35:00,59.5,28.1,29.73,NE,45,0.0,2.9,30,0.00,,,0.00,WUHU21623XXSP,2013-03-08 21:35:00,
2013-03-08 16:40:00,58.8,27.5,29.73,NNW,337,0.0,2.9,30,0.00,,,0.00,WUHU21623XXSP,2013-03-08 21:40:00,
2013-03-08 16:45:00,58.6,27.4,29.73,NNW,337,0.0,5.4,30,0.00,,,0.00,WUHU21623XXSP,2013-03-08 21:45:00,
2013-03-08 16:50:00,58.3,27.7,29.73,NE,45,0.0,5.4,31,0.00,,,0.00,WUHU21623XXSP,2013-03-08 21:50:00,
2013-03-08 16:55:00,58.1,27.6,29.73,North,0,0.0,4.0,31,0.00,,,0.00,WUHU21623XXSP,2013-03-08 21:55:00,
2013-03-08 17:00:00,57.9,27.4,29.73,North,0,0.0,4.0,31,0.00,,,0.00,WUHU21623XXSP,2013-03-08 22:00:00,
2013-03-08 17:05:00,57.7,27.2,29.73,North,0,0.0,0.0,31,0.00,,,0.00,WUHU21623XXSP,2013-03-08 22:05:00,
2013-03-08 17:10:00,57.7,27.2,29.73,North,0,0.0,3.8,31,0.00,,,0.00,WUHU21623XXSP,2013-03-08 22:10:00,
2013-03-08 17:15:00,58.1,27.6,29.73,North,0,0.0,3.8,31,0.00,,,0.00,WUHU21623XXSP,2013-03-08 22:15:00,
2013-03-08 17:20:00,57.7,27.9,29.74,North,0,0.0,0.0,32,0.00,,,0.00,WUHU21623XXSP,2013-03-08 22:20:00,
2013-03-08 17:25:00,57.6,27.8,29.74,North,0,0.0,0.0,32,0.00,,,0.00,WUHU21623XXSP,2013-03-08 22:25:00,
2013-03-08 17:30:00,57.9,28.1,29.74,North,0,0.0,0.0,32,0.00,,,0.00,WUHU21623XXSP,2013-03-08 22:30:00,
2013-03-08 17:35:00,57.4,27.6,29.74,North,0,0.0,0.0,32,0.00,,,0.00,WUHU21623XXSP,2013-03-08 22:35:00,
2013-03-08 17:40:00,57.0,27.3,29.74,North,0,0.0,0.0,32,0.00,,,0.00,WUHU21623XXSP,2013-03-08 22:40:00,
2013-03-08 17:45:00,56.8,27.8,29.74,North,0,0.0,0.0,33,0.00,,,0.00,WUHU21623XXSP,2013-03-08 22:45:00,
2013-03-08 17:50:00,58.6,29.5,29.74,North,0,0.0,0.0,33,0.00,,,0.00,WUHU21623XXSP,2013-03-08 22:50:00,
2013-03-08 17:55:00,57.9,28.1,29.74,North,0,0.0,0.0,32,0.00,,,0.00,WUHU21623XXSP,2013-03-08 22:55:00,
2013-03-08 18:00:00,56.8,27.1,29.75,North,0,0.0,0.0,32,0.00,,,0.00,WUHU21623XXSP,2013-03-08 23:00:00,
2013-03-08 18:05:00,55.9,27.0,29.75,North,0,0.0,0.0,33,0.00,,,0.00,WUHU21623XXSP,2013-03-08 23:05:00,
2013-03-08 18:10:00,55.2,27.1,29.75,North,0,0.0,0.0,34,0.00,,,0.00,WUHU21623XXSP,2013-03-08 23:10:00,
2013-03-08 18:15:00,54.5,26.5,29.75,North,0,0.0,0.0,34,0.00,,,0.00,WUHU21623XXSP,2013-03-08 23:15:00,
2013-03-08 18:20:00,54.0,26.7,29.75,North,0,0.0,0.0,35,0.00,,,0.00,WUHU21623XXSP,2013-03-08 23:20:00,
2013-03-08 18:25:00,53.4,27.6,29.75,North,0,0.0,0.0,37,0.00,,,0.00,WUHU21623XXSP,2013-03-08 23:25:00,
2013-03-08 18:30:00,52.9,27.1,29.75,North,0,0.0,0.0,37,0.00,,,0.00,WUHU21623XXSP,2013-03-08 23:30:00,
2013-03-08 18:35:00,52.3,27.3,29.75,North,0,0.0,0.0,38,0.00,,,0.00,WUHU21623XXSP,2013-03-08 23:35:00,
2013-03-08 18:40:00,51.8,27.5,29.75,North,0,0.0,0.0,39,0.00,,,0.00,WUHU21623XXSP,2013-03-08 23:40:00,
2013-03-08 18:45:00,51.3,28.3,29.76,North,0,0.0,0.0,41,0.00,,,0.00,WUHU21623XXSP,2013-03-08 23:45:00,
2013-03-08 18:50:00,50.7,27.8,29.76,North,0,0.0,0.0,41,0.00,,,0.00,WUHU21623XXSP,2013-03-08 23:50:00,
2013-03-08 18:55:00,50.5,27.6,29.76,North,0,0.0,0.0,41,0.00,,,0.00,WUHU21623XXSP,2013-03-08 23:55:00,
2013-03-08 19:00:00,49.8,27.5,29.77,North,0,0.0,0.0,42,0.00,,,0.00,WUHU21623XXSP,2013-03-09 00:00:00,
2013-03-08 19:06:00,49.6,27.9,29.76,North,0,0.0,0.0,43,0.00,,,0.00,WUHU21623XXSP,2013-03-09 00:06:00,
2013-03-08 19:11:00,49.3,28.7,29.77,North,0,0.0,0.0,45,0.00,,,0.00,WUHU21623XXSP,2013-03-09 00:11:00,
2013-03-08 19:16:00,48.9,28.4,29.77,North,0,0.0,0.0,45,0.00,,,0.00,WUHU21623XXSP,2013-03-09 00:16:00,
2013-03-08 19:21:00,48.7,28.2,29.77,North,0,0.0,0.0,45,0.00,,,0.00,WUHU21623XXSP,2013-03-09 00:21:00,
2013-03-08 19:26:00,48.6,28.0,29.77,North,0,0.0,0.0,45,0.00,,,0.00,WUHU21623XXSP,2013-03-09 00:26:00,
2013-03-08 19:31:00,48.4,27.8,29.77,North,0,0.0,0.0,45,0.00,,,0.00,WUHU21623XXSP,2013-03-09 00:31:00,
2013-03-08 19:36:00,48.0,28.1,29.78,North,0,0.0,0.0,46,0.00,,,0.00,WUHU21623XXSP,2013-03-09 00:36:00,
2013-03-08 19:41:00,47.8,28.4,29.78,North,0,0.0,0.0,47,0.00,,,0.00,WUHU21623XXSP,2013-03-09 00:41:00,
2013-03-08 19:46:00,47.3,27.9,29.78,North,0,0.0,0.0,47,0.00,,,0.00,WUHU21623XXSP,2013-03-09 00:46:00,
2013-03-08 19:51:00,47.1,28.3,29.78,North,0,0.0,0.0,48,0.00,,,0.00,WUHU21623XXSP,2013-03-09 00:51:00,
2013-03-08 19:56:00,46.9,28.2,29.78,North,0,0.0,0.0,48,0.00,,,0.00,WUHU21623XXSP,2013-03-09 00:56:00,
2013-03-08 20:01:00,46.8,28.5,29.78,North,0,0.0,0.0,49,0.00,,,0.00,WUHU21623XXSP,2013-03-09 01:01:00,
2013-03-08 20:06:00,46.6,28.4,29.78,North,0,0.0,0.0,49,0.00,,,0.00,WUHU21623XXSP,2013-03-09 01:06:00,
2013-03-08 20:11:00,46.6,28.4,29.78,North,0,0.0,0.0,49,0.00,,,0.00,WUHU21623XXSP,2013-03-09 01:11:00,
2013-03-08 20:16:00,46.2,28.1,29.78,North,0,0.0,0.0,49,0.00,,,0.00,WUHU21623XXSP,2013-03-09 01:16:00,
2013-03-08 20:21:00,46.0,27.9,29.78,North,0,0.0,0.0,49,0.00,,,0.00,WUHU21623XXSP,2013-03-09 01:21:00,
2013-03-08 20:26:00,45.5,27.9,29.79,North,0,0.0,0.0,50,0.00,,,0.00,WUHU21623XXSP,2013-03-09 01:26:00,
2013-03-08 20:31:00,45.1,28.1,29.79,North,0,0.0,0.0,51,0.00,,,0.00,WUHU21623XXSP,2013-03-09 01:31:00,
2013-03-08 20:36:00,45.0,27.9,29.79,North,0,0.0,0.0,51,0.00,,,0.00,WUHU21623XXSP,2013-03-09 01:36:00,
2013-03-08 20:41:00,44.4,28.3,29.79,North,0,0.0,0.0,53,0.00,,,0.00,WUHU21623XXSP,2013-03-09 01:41:00,
2013-03-08 20:46:00,44.2,28.1,29.78,North,0,0.0,0.0,53,0.00,,,0.00,WUHU21623XXSP,2013-03-09 01:46:00,
2013-03-08 20:51:00,44.2,28.6,29.79,North,0,0.0,0.0,54,0.00,,,0.00,WUHU21623XXSP,2013-03-09 01:51:00,
2013-03-08 20:56:00,43.7,28.5,29.79,North,0,0.0,0.0,55,0.00,,,0.00,WUHU21623XXSP,2013-03-09 01:56:00,
2013-03-08 21:01:00,43.2,28.0,29.79,North,0,0.0,0.0,55,0.00,,,0.00,WUHU21623XXSP,2013-03-09 02:01:00,
2013-03-08 21:06:00,42.6,27.9,29.79,North,0,0.0,0.0,56,0.00,,,0.00,WUHU21623XXSP,2013-03-09 02:06:00,
2013-03-08 21:11:00,42.4,27.8,29.80,North,0,0.0,0.0,56,0.00,,,0.00,WUHU21623XXSP,2013-03-09 02:11:00,
2013-03-08 21:16:00,42.1,27.4,29.80,North,0,0.0,0.0,56,0.00,,,0.00,WUHU21623XXSP,2013-03-09 02:16:00,
2013-03-08 21:21:00,42.4,27.8,29.80,North,0,0.0,0.0,56,0.00,,,0.00,WUHU21623XXSP,2013-03-09 02:21:00,
2013-03-08 21:26:00,42.6,27.5,29.80,North,0,0.0,0.0,55,0.00,,,0.00,WUHU21623XXSP,2013-03-09 02:26:00,
2013-03-08 21:31:00,42.6,28.4,29.80,North,0,0.0,0.0,57,0.00,,,0.00,WUHU21623XXSP,2013-03-09 02:31:00,
2013-03-08 21:36:00,42.6,28.8,29.79,North,0,0.0,0.0,58,0.00,,,0.00,WUHU21623XXSP,2013-03-09 02:36:00,
2013-03-08 21:41:00,42.4,28.6,29.79,North,0,0.0,0.0,58,0.00,,,0.00,WUHU21623XXSP,2013-03-09 02:41:00,
2013-03-08 21:46:00,42.1,27.9,29.79,North,0,0.0,0.0,57,0.00,,,0.00,WUHU21623XXSP,2013-03-09 02:46:00,
2013-03-08 21:51:00,42.1,27.9,29.80,North,0,0.0,0.0,57,0.00,,,0.00,WUHU21623XXSP,2013-03-09 02:51:00,
2013-03-08 21:56:00,41.9,27.7,29.80,North,0,0.0,0.0,57,0.00,,,0.00,WUHU21623XXSP,2013-03-09 02:56:00,
2013-03-08 22:01:00,42.1,27.9,29.80,North,0,0.0,0.0,57,0.00,,,0.00,WUHU21623XXSP,2013-03-09 03:01:00,
2013-03-08 22:06:00,42.1,27.9,29.80,North,0,0.0,0.0,57,0.00,,,0.00,WUHU21623XXSP,2013-03-09 03:06:00,
2013-03-08 22:11:00,42.4,28.6,29.80,North,0,0.0,0.0,58,0.00,,,0.00,WUHU21623XXSP,2013-03-09 03:11:00,
2013-03-08 22:16:00,42.4,28.6,29.80,North,0,0.0,0.0,58,0.00,,,0.00,WUHU21623XXSP,2013-03-09 03:16:00,
2013-03-08 22:21:00,42.4,28.2,29.80,North,0,0.0,0.0,57,0.00,,,0.00,WUHU21623XXSP,2013-03-09 03:21:00,
2013-03-08 22:26:00,42.6,28.4,29.80,North,0,0.0,0.0,57,0.00,,,0.00,WUHU21623XXSP,2013-03-09 03:26:00,
2013-03-08 22:31:00,42.4,28.2,29.80,North,0,0.0,0.0,57,0.00,,,0.00,WUHU21623XXSP,2013-03-09 03:31:00,
2013-03-08 22:36:00,42.1,27.9,29.80,North,0,0.0,0.0,57,0.00,,,0.00,WUHU21623XXSP,2013-03-09 03:36:00,
2013-03-08 22:41:00,41.9,27.7,29.80,North,0,0.0,0.0,57,0.00,,,0.00,WUHU21623XXSP,2013-03-09 03:41:00,
2013-03-08 22:46:00,41.7,27.5,29.80,North,0,0.0,0.0,57,0.00,,,0.00,WUHU21623XXSP,2013-03-09 03:46:00,
2013-03-08 22:51:00,41.9,27.7,29.80,North,0,0.0,0.0,57,0.00,,,0.00,WUHU21623XXSP,2013-03-09 03:51:00,
2013-03-08 22:56:00,42.1,27.9,29.80,North,0,0.0,0.0,57,0.00,,,0.00,WUHU21623XXSP,2013-03-09 03:56:00,
2013-03-08 23:01:00,42.1,27.4,29.80,North,0,0.0,0.0,56,0.00,,,0.00,WUHU21623XXSP,2013-03-09 04:01:00,
2013-03-08 23:06:00,42.1,27.9,29.80,North,0,0.0,0.0,57,0.00,,,0.00,WUHU21623XXSP,2013-03-09 04:06:00,
2013-03-08 23:11:00,42.1,27.4,29.80,North,0,0.0,0.0,56,0.00,,,0.00,WUHU21623XXSP,2013-03-09 04:11:00,
2013-03-08 23:16:00,42.1,27.9,29.79,North,0,0.0,0.0,57,0.00,,,0.00,WUHU21623XXSP,2013-03-09 04:16:00,
2013-03-08 23:21:00,42.1,27.9,29.80,North,0,0.0,0.0,57,0.00,,,0.00,WUHU21623XXSP,2013-03-09 04:21:00,
2013-03-08 23:26:00,41.9,27.7,29.80,North,0,0.0,0.0,57,0.00,,,0.00,WUHU21623XXSP,2013-03-09 04:26:00,
2013-03-08 23:31:00,41.5,27.4,29.80,North,0,0.0,0.0,57,0.00,,,0.00,WUHU21623XXSP,2013-03-09 04:31:00,
2013-03-08 23:36:00,41.4,27.2,29.80,North,0,0.0,0.0,57,0.00,,,0.00,WUHU21623XXSP,2013-03-09 04:36:00,
2013-03-08 23:41:00,41.2,27.0,29.80,North,0,0.0,0.0,57,0.00,,,0.00,WUHU21623XXSP,2013-03-09 04:41:00,
2013-03-08 23:46:00,40.8,27.1,29.80,North,0,0.0,0.0,58,0.00,,,0.00,WUHU21623XXSP,2013-03-09 04:46:00,
2013-03-08 23:51:00,40.8,26.7,29.81,North,0,0.0,0.0,57,0.00,,,0.00,WUHU21623XXSP,2013-03-09 04:51:00,
2013-03-08 23:56:00,41.2,27.0,29.81,North,0,0.0,0.0,57,0.00,,,0.00,WUHU21623XXSP,2013-03-09 04:56:00,